Location: Newark
(41.3833°N, 2.1669°E)
Time: 06:22:52
(UTC+00:00)

ISS - Visible Passes

Search period start: 07 December 2019 00:00
Search period end: 17 December 2019 00:00
Orbit: 411 x 421 km, 51.6° (Epoch: 07 December)

Date Brightness Start Highest point End Pass type
(mag) Time Alt. Az. Time Alt. Az. Time Alt. Az.
07 Dec -3.1 18:14:25 10° NW 18:17:00 47° NNW 18:17:00 47° NNW visible
08 Dec -3.2 17:26:00 10° NW 17:29:13 40° NNE 17:31:03 21° E visible
08 Dec -0.7 19:02:59 10° WNW 19:03:59 16° W 19:03:59 16° W visible
09 Dec -2.7 18:14:14 10° WNW 18:17:27 44° SW 18:18:19 35° S visible
10 Dec -3.7 17:25:38 10° WNW 17:29:00 80° SW 17:32:20 10° SE visible
11 Dec -0.7 18:14:43 10° W 18:16:53 16° SW 18:19:03 10° S visible
12 Dec -1.5 17:25:37 10° WNW 17:28:32 28° SW 17:31:25 10° SSE visible
